| time (UTC) | temp F | wind direction | speed MPH | gust MPH | rain 1hr in | rain 24hr in | rain mn in | humidity % | barometer mb |
| 20260502170309 | 74 | 89 | 0.0 | 2.0 | 0.00 | 0.00 | 0.00 | 35 | 1023.0 |
| 20260502164305 | 76 | 79 | 0.0 | 4.0 | 0.00 | 0.00 | 0.00 | 32 | 1023.1 |
| 20260502163804 | 76 | 79 | 0.0 | 4.0 | 0.00 | 0.00 | 0.00 | 32 | 1023.1 |
| 20260502163305 | 77 | 328 | 0.0 | 1.0 | 0.00 | 0.00 | 0.00 | 32 | 1023.2 |
| 20260502162804 | 77 | 328 | 0.0 | 1.0 | 0.00 | 0.00 | 0.00 | 31 | 1023.2 |
| 20260502162300 | 77 | 328 | 0.0 | 1.0 | 0.00 | 0.00 | 0.00 | 32 | 1023.2 |
| 20260502161800 | 76 | 328 | 0.0 | 1.0 | 0.00 | 0.00 | 0.00 | 32 | 1023.2 |
| 20260502161301 | 76 | 328 | 0.0 | 0.0 | 0.00 | 0.00 | 0.00 | 32 | 1023.2 |
| 20260502160758 | 76 | 328 | 0.0 | 1.0 | 0.00 | 0.00 | 0.00 | 32 | 1023.3 |
| 20260502160300 | 76 | 328 | 0.0 | 4.0 | 0.00 | 0.00 | 0.00 | 33 | 1023.3 |
| 20260502152214 | 75 | 101 | 1.0 | 4.0 | 0.00 | 0.00 | 0.00 | 32 | 1023.5 |
| 20260502151708 | 76 | 122 | 0.0 | 3.0 | 0.00 | 0.00 | 0.00 | 31 | 1023.5 |
| 20260502151203 | 76 | 359 | 0.0 | 3.0 | 0.00 | 0.00 | 0.00 | 32 | 1023.6 |
| 20260502150657 | 76 | 359 | 0.0 | 3.0 | 0.00 | 0.00 | 0.00 | 32 | 1023.6 |
| 20260502150150 | 75 | 95 | 0.0 | 3.0 | 0.00 | 0.00 | 0.00 | 32 | 1023.7 |
| 20260502140109 | 75 | 112 | 1.0 | 6.0 | 0.00 | 0.00 | 0.00 | 31 | 1024.4 |
| 20260502130110 | 73 | 94 | 2.0 | 9.0 | 0.00 | 0.00 | 0.00 | 32 | 1025.3 |
| 20260502123056 | 74 | 91 | 1.0 | 9.0 | 0.00 | 0.00 | 0.00 | 33 | 1025.6 |
| 20260502122053 | 73 | 95 | 2.0 | 7.0 | 0.00 | 0.00 | 0.00 | 30 | 1025.7 |
| 20260502121552 | 74 | 104 | 1.0 | 7.0 | 0.00 | 0.00 | 0.00 | 34 | 1025.6 |
| 20260502121053 | 73 | 175 | 1.0 | 10.0 | 0.00 | 0.00 | 0.00 | 32 | 1025.6 |
| 20260502120550 | 73 | 115 | 2.0 | 10.0 | 0.00 | 0.00 | 0.00 | 32 | 1025.7 |
| 20260502115550 | 73 | 176 | 1.0 | 8.0 | 0.00 | 0.00 | 0.00 | 32 | 1025.8 |
| 20260502115051 | 73 | 139 | 1.0 | 8.0 | 0.00 | 0.00 | 0.00 | 32 | 1025.8 |
| 20260502114554 | 73 | 109 | 1.0 | 7.0 | 0.00 | 0.00 | 0.00 | 31 | 1025.8 |
| 20260502114048 | 73 | 186 | 1.0 | 7.0 | 0.00 | 0.00 | 0.00 | 32 | 1025.8 |
| 20260502113546 | 73 | 210 | 0.0 | 3.0 | 0.00 | 0.00 | 0.00 | 33 | 1025.9 |
| 20260502113045 | 72 | 27 | 0.0 | 5.0 | 0.00 | 0.00 | 0.00 | 32 | 1026.0 |
| 20260502112546 | 72 | 114 | 1.0 | 8.0 | 0.00 | 0.00 | 0.00 | 32 | 1026.0 |
| 20260502112044 | 72 | 186 | 1.0 | 8.0 | 0.00 | 0.00 | 0.00 | 34 | 1026.1 |
| 20260502111044 | 71 | 113 | 1.0 | 6.0 | 0.00 | 0.00 | 0.00 | 33 | 1026.1 |
| 20260502110542 | 71 | 65 | 1.0 | 6.0 | 0.00 | 0.00 | 0.00 | 34 | 1026.3 |
| 20260502110058 | 71 | 131 | 1.0 | 5.0 | 0.00 | 0.00 | 0.00 | 34 | 1026.3 |
| 20260502105542 | 71 | 270 | 1.0 | 4.0 | 0.00 | 0.00 | 0.00 | 33 | 1026.4 |
| 20260502105044 | 71 | 129 | 1.0 | 7.0 | 0.00 | 0.00 | 0.00 | 33 | 1026.6 |
| 20260502104542 | 72 | 98 | 1.0 | 7.0 | 0.00 | 0.00 | 0.00 | 33 | 1026.8 |
| 20260502104055 | 72 | 93 | 1.0 | 6.0 | 0.00 | 0.00 | 0.00 | 34 | 1026.9 |
| 20260502103040 | 71 | 291 | 1.0 | 6.0 | 0.00 | 0.00 | 0.00 | 36 | 1026.9 |
| 20260502102041 | 71 | 68 | 0.0 | 3.0 | 0.00 | 0.00 | 0.00 | 33 | 1026.9 |
| 20260502101544 | 70 | 100 | 0.0 | 3.0 | 0.00 | 0.00 | 0.00 | 37 | 1026.9 |
| 20260502100542 | 70 | 86 | 1.0 | 5.0 | 0.00 | 0.00 | 0.00 | 37 | 1027.0 |
| 20260502091037 | 68 | 96 | 1.0 | 8.0 | 0.00 | 0.00 | 0.00 | 38 | 1027.4 |
| 20260502090537 | 68 | 297 | 1.0 | 11.0 | 0.00 | 0.00 | 0.00 | 39 | 1027.5 |
| 20260502071530 | 61 | 145 | 0.0 | 1.0 | 0.00 | 0.00 | 0.00 | 53 | 1028.0 |
| 20260502071032 | 60 | 145 | 0.0 | 0.0 | 0.00 | 0.00 | 0.00 | 52 | 1028.0 |
| 20260502070530 | 60 | 145 | 0.0 | 0.0 | 0.00 | 0.00 | 0.00 | 52 | 1027.9 |
| 20260502070030 | 58 | 146 | 0.0 | 0.0 | 0.00 | 0.00 | 0.00 | 51 | 1028.0 |
| 20260502065527 | 58 | 203 | 0.0 | 0.0 | 0.00 | 0.00 | 0.00 | 51 | 1028.0 |
| 20260502065028 | 57 | 203 | 0.0 | 0.0 | 0.00 | 0.00 | 0.00 | 56 | 1028.0 |
| 20260502063540 | 54 | 261 | 0.0 | 0.0 | 0.00 | 0.00 | 0.00 | 61 | 1028.1 |
| 20260502063027 | 52 | 269 | 0.0 | 0.0 | 0.00 | 0.00 | 0.00 | 64 | 1028.2 |
| 20260502062528 | 51 | 269 | 0.0 | 0.0 | 0.00 | 0.00 | 0.00 | 67 | 1028.2 |
| 20260502062028 | 50 | 269 | 0.0 | 0.0 | 0.00 | 0.00 | 0.00 | 71 | 1028.3 |
| 20260502061527 | 49 | 269 | 0.0 | 0.0 | 0.00 | 0.00 | 0.00 | 74 | 1028.2 |
| 20260502061027 | 48 | 270 | 0.0 | 0.0 | 0.00 | 0.00 | 0.00 | 75 | 1028.2 |
| 20260502060529 | 47 | 271 | 0.0 | 2.0 | 0.00 | 0.00 | 0.00 | 77 | 1028.3 |
| 20260502060027 | 46 | 271 | 0.0 | 3.0 | 0.00 | 0.00 | 0.00 | 78 | 1028.3 |
| 20260502055526 | 45 | 268 | 0.0 | 3.0 | 0.00 | 0.00 | 0.00 | 78 | 1028.4 |
| 20260502055026 | 44 | 267 | 0.0 | 2.0 | 0.00 | 0.00 | 0.00 | 80 | 1028.4 |
| 20260502054024 | 43 | 266 | 0.0 | 2.0 | 0.00 | 0.00 | 0.00 | 79 | 1028.4 |
| 20260502053521 | 42 | 262 | 0.0 | 2.0 | 0.00 | 0.00 | 0.00 | 80 | 1028.4 |
| 20260502052518 | 42 | 266 | 0.0 | 3.0 | 0.00 | 0.00 | 0.00 | 81 | 1028.3 |
| 20260502052015 | 41 | 271 | 0.0 | 4.0 | 0.00 | 0.00 | 0.00 | 82 | 1028.4 |
| 20260502051529 | 40 | 271 | 0.0 | 4.0 | 0.00 | 0.00 | 0.00 | 82 | 1028.3 |
| 20260502050509 | 39 | 280 | 0.0 | 4.0 | 0.00 | 0.00 | 0.00 | 82 | 1028.3 |
| 20260502050010 | 39 | 282 | 0.0 | 4.0 | 0.00 | 0.00 | 0.00 | 83 | 1028.4 |
| 20260502045007 | 38 | 277 | 0.0 | 3.0 | 0.00 | 0.00 | 0.00 | 82 | 1028.3 |
| 20260502044506 | 38 | 279 | 0.0 | 2.0 | 0.00 | 0.00 | 0.00 | 82 | 1028.4 |
| 20260502042959 | 38 | 276 | 0.0 | 1.0 | 0.00 | 0.00 | 0.00 | 81 | 1028.3 |
| 20260502042459 | 38 | 278 | 0.0 | 1.0 | 0.00 | 0.00 | 0.00 | 81 | 1028.3 |
| 20260502041457 | 38 | 273 | 0.0 | 3.0 | 0.00 | 0.00 | 0.00 | 80 | 1028.2 |
| 20260502040500 | 38 | 271 | 0.0 | 3.0 | 0.00 | 0.00 | 0.00 | 81 | 1028.3 |
| 20260502035955 | 38 | 274 | 0.0 | 3.0 | 0.00 | 0.00 | 0.00 | 81 | 1028.2 |
| 20260502035453 | 38 | 274 | 0.0 | 3.0 | 0.00 | 0.00 | 0.00 | 80 | 1028.3 |
| 20260502034953 | 38 | 277 | 0.0 | 3.0 | 0.00 | 0.00 | 0.00 | 81 | 1028.1 |
| 20260502034452 | 38 | 266 | 0.0 | 2.0 | 0.00 | 0.00 | 0.00 | 80 | 1028.2 |
| 20260502033951 | 38 | 267 | 0.0 | 3.0 | 0.00 | 0.00 | 0.00 | 80 | 1028.0 |
| 20260502033454 | 38 | 275 | 1.0 | 6.0 | 0.00 | 0.00 | 0.00 | 79 | 1028.1 |
| 20260502032440 | 39 | 267 | 0.0 | 2.0 | 0.00 | 0.00 | 0.00 | 79 | 1028.0 |
| 20260502031427 | 39 | 271 | 0.0 | 3.0 | 0.00 | 0.00 | 0.00 | 79 | 1028.0 |
| 20260502030928 | 39 | 275 | 0.0 | 3.0 | 0.00 | 0.00 | 0.00 | 79 | 1028.1 |
| 20260502030427 | 39 | 276 | 0.0 | 0.0 | 0.00 | 0.00 | 0.00 | 79 | 1028.1 |
| 20260502025928 | 39 | 267 | 0.0 | 0.0 | 0.00 | 0.00 | 0.00 | 79 | 1028.1 |
| 20260502025427 | 39 | 272 | 0.0 | 0.0 | 0.00 | 0.00 | 0.00 | 79 | 1028.2 |
| 20260502024929 | 39 | 271 | 0.0 | 0.0 | 0.00 | 0.00 | 0.00 | 78 | 1028.2 |
| 20260502024427 | 39 | 274 | 0.0 | 0.0 | 0.00 | 0.00 | 0.00 | 78 | 1028.2 |
| 20260502023930 | 39 | 268 | 0.0 | 0.0 | 0.00 | 0.00 | 0.00 | 78 | 1028.3 |
| 20260502023428 | 39 | 268 | 0.0 | 0.0 | 0.00 | 0.00 | 0.00 | 78 | 1028.2 |
| 20260502022928 | 39 | 268 | 0.0 | 0.0 | 0.00 | 0.00 | 0.00 | 78 | 1028.3 |
| 20260502022426 | 39 | 268 | 0.0 | 0.0 | 0.00 | 0.00 | 0.00 | 78 | 1028.3 |
| 20260502021928 | 39 | 282 | 0.0 | 0.0 | 0.00 | 0.00 | 0.00 | 79 | 1028.2 |
| 20260502021425 | 38 | 282 | 0.0 | 2.0 | 0.00 | 0.00 | 0.00 | 78 | 1028.4 |
| 20260502020926 | 38 | 278 | 0.0 | 3.0 | 0.00 | 0.00 | 0.00 | 78 | 1028.3 |
| 20260502015926 | 39 | 270 | 1.0 | 4.0 | 0.00 | 0.00 | 0.00 | 77 | 1028.3 |
| 20260502014926 | 39 | 282 | 1.0 | 4.0 | 0.00 | 0.00 | 0.00 | 76 | 1028.4 |
| 20260502013913 | 39 | 271 | 0.0 | 2.0 | 0.00 | 0.00 | 0.00 | 75 | 1028.4 |
| 20260502013407 | 39 | 252 | 0.0 | 3.0 | 0.00 | 0.00 | 0.00 | 75 | 1028.4 |
| 20260502012357 | 40 | 273 | 0.0 | 2.0 | 0.00 | 0.00 | 0.00 | 74 | 1028.4 |
| 20260502011851 | 40 | 268 | 0.0 | 5.0 | 0.00 | 0.00 | 0.00 | 73 | 1028.6 |
| 20260502011345 | 40 | 261 | 0.0 | 5.0 | 0.00 | 0.00 | 0.00 | 74 | 1028.4 |
| 20260502010837 | 40 | 267 | 1.0 | 4.0 | 0.00 | 0.00 | 0.00 | 73 | 1028.3 |
| 20260502010330 | 40 | 275 | 1.0 | 4.0 | 0.00 | 0.00 | 0.00 | 73 | 1028.3 |
| 20260502005827 | 40 | 289 | 0.0 | 3.0 | 0.00 | 0.00 | 0.00 | 73 | 1028.4 |
| 20260502005319 | 40 | 272 | 1.0 | 3.0 | 0.00 | 0.00 | 0.00 | 73 | 1028.3 |
| 20260502004813 | 40 | 280 | 1.0 | 4.0 | 0.00 | 0.00 | 0.00 | 72 | 1028.3 |
| 20260502004311 | 41 | 277 | 1.0 | 4.0 | 0.00 | 0.00 | 0.00 | 72 | 1028.4 |
| 20260502003814 | 41 | 278 | 0.0 | 3.0 | 0.00 | 0.00 | 0.00 | 71 | 1028.3 |
| 20260502003310 | 42 | 272 | 0.0 | 2.0 | 0.00 | 0.00 | 0.00 | 71 | 1028.4 |
| 20260502002811 | 42 | 272 | 0.0 | 2.0 | 0.00 | 0.00 | 0.00 | 71 | 1028.3 |
| 20260502001811 | 41 | 276 | 0.0 | 2.0 | 0.00 | 0.00 | 0.00 | 71 | 1028.4 |
| 20260502001313 | 41 | 275 | 0.0 | 2.0 | 0.00 | 0.00 | 0.00 | 72 | 1028.4 |
| 20260502000811 | 41 | 274 | 0.0 | 4.0 | 0.00 | 0.00 | 0.00 | 72 | 1028.6 |
| 20260501235813 | 41 | 270 | 1.0 | 4.0 | 0.00 | 0.00 | 0.00 | 71 | 1028.7 |
| 20260501235311 | 42 | 288 | 0.0 | 3.0 | 0.00 | 0.00 | 0.00 | 69 | 1028.6 |
| 20260501234812 | 43 | 262 | 0.0 | 2.0 | 0.00 | 0.00 | 0.00 | 67 | 1028.6 |
| 20260501234312 | 44 | 264 | 0.0 | 0.0 | 0.00 | 0.00 | 0.00 | 66 | 1028.4 |
| 20260501233809 | 44 | 264 | 0.0 | 0.0 | 0.00 | 0.00 | 0.00 | 66 | 1028.4 |
| 20260501233308 | 44 | 264 | 0.0 | 0.0 | 0.00 | 0.00 | 0.00 | 65 | 1028.4 |
| 20260501232806 | 44 | 264 | 0.0 | 0.0 | 0.00 | 0.00 | 0.00 | 65 | 1028.4 |
| 20260501232306 | 43 | 269 | 0.0 | 0.0 | 0.00 | 0.00 | 0.00 | 66 | 1028.3 |
| 20260501231817 | 43 | 267 | 0.0 | 0.0 | 0.00 | 0.00 | 0.00 | 67 | 1028.4 |
| 20260501231305 | 43 | 271 | 0.0 | 0.0 | 0.00 | 0.00 | 0.00 | 68 | 1028.6 |
| 20260501230806 | 42 | 271 | 0.0 | 0.0 | 0.00 | 0.00 | 0.00 | 69 | 1028.4 |
| 20260501230305 | 42 | 274 | 0.0 | 0.0 | 0.00 | 0.00 | 0.00 | 69 | 1028.4 |
| 20260501225805 | 42 | 271 | 0.0 | 0.0 | 0.00 | 0.00 | 0.00 | 69 | 1028.6 |
| 20260501225306 | 42 | 271 | 0.0 | 0.0 | 0.00 | 0.00 | 0.00 | 69 | 1028.4 |
| 20260501224811 | 43 | 271 | 0.0 | 0.0 | 0.00 | 0.00 | 0.00 | 68 | 1028.6 |
| 20260501224302 | 43 | 270 | 0.0 | 0.0 | 0.00 | 0.00 | 0.00 | 68 | 1028.7 |
| 20260501223801 | 44 | 276 | 0.0 | 0.0 | 0.00 | 0.00 | 0.00 | 67 | 1028.6 |
| 20260501223303 | 44 | 271 | 0.0 | 0.0 | 0.00 | 0.00 | 0.00 | 66 | 1028.4 |
| 20260501222801 | 44 | 271 | 0.0 | 0.0 | 0.00 | 0.00 | 0.00 | 66 | 1028.6 |
| 20260501222305 | 44 | 271 | 0.0 | 0.0 | 0.00 | 0.00 | 0.00 | 65 | 1028.6 |
| 20260501221801 | 44 | 271 | 0.0 | 0.0 | 0.00 | 0.00 | 0.00 | 66 | 1028.6 |
| 20260501221301 | 44 | 272 | 0.0 | 0.0 | 0.00 | 0.00 | 0.00 | 66 | 1028.4 |
| 20260501220803 | 44 | 273 | 0.0 | 0.0 | 0.00 | 0.00 | 0.00 | 67 | 1028.4 |
| 20260501220301 | 44 | 273 | 0.0 | 0.0 | 0.00 | 0.00 | 0.00 | 67 | 1028.4 |
| 20260501215755 | 44 | 281 | 0.0 | 0.0 | 0.00 | 0.00 | 0.00 | 67 | 1028.4 |
| 20260501213732 | 45 | 273 | 0.0 | 0.0 | 0.00 | 0.00 | 0.00 | 66 | 1028.2 |
| 20260501212231 | 45 | 271 | 0.0 | 0.0 | 0.00 | 0.00 | 0.00 | 65 | 1028.2 |
| 20260501211228 | 46 | 270 | 0.0 | 0.0 | 0.00 | 0.00 | 0.00 | 62 | 1028.1 |
| 20260501210726 | 46 | 269 | 0.0 | 0.0 | 0.00 | 0.00 | 0.00 | 59 | 1028.0 |
| 20260501210240 | 47 | 269 | 0.0 | 0.0 | 0.00 | 0.00 | 0.00 | 59 | 1028.0 |
| 20260501205724 | 47 | 269 | 0.0 | 0.0 | 0.00 | 0.00 | 0.00 | 61 | 1027.9 |
| 20260501204220 | 47 | 269 | 0.0 | 0.0 | 0.00 | 0.00 | 0.00 | 62 | 1027.8 |
| 20260501203215 | 48 | 266 | 0.0 | 0.0 | 0.00 | 0.00 | 0.00 | 60 | 1027.8 |
| 20260501202711 | 49 | 265 | 0.0 | 0.0 | 0.00 | 0.00 | 0.00 | 56 | 1027.8 |
| 20260501202210 | 49 | 94 | 0.0 | 0.0 | 0.00 | 0.00 | 0.00 | 54 | 1027.6 |
| 20260501201712 | 50 | 94 | 0.0 | 0.0 | 0.00 | 0.00 | 0.00 | 53 | 1027.6 |
| 20260501200709 | 51 | 94 | 0.0 | 0.0 | 0.00 | 0.00 | 0.00 | 52 | 1027.5 |
| 20260501200205 | 51 | 92 | 0.0 | 0.0 | 0.00 | 0.00 | 0.00 | 50 | 1027.5 |
| 20260501195203 | 52 | 92 | 0.0 | 0.0 | 0.00 | 0.00 | 0.00 | 48 | 1027.4 |
| 20260501194702 | 53 | 92 | 0.0 | 0.0 | 0.00 | 0.00 | 0.00 | 47 | 1027.4 |
| 20260501194159 | 53 | 92 | 0.0 | 0.0 | 0.00 | 0.00 | 0.00 | 46 | 1027.2 |
| 20260501193657 | 54 | 92 | 0.0 | 0.0 | 0.00 | 0.00 | 0.00 | 45 | 1027.2 |
| 20260501192700 | 56 | 92 | 0.0 | 0.0 | 0.00 | 0.00 | 0.00 | 44 | 1027.1 |
| 20260501192157 | 56 | 92 | 0.0 | 0.0 | 0.00 | 0.00 | 0.00 | 43 | 1027.0 |
| 20260501191659 | 56 | 92 | 0.0 | 0.0 | 0.00 | 0.00 | 0.00 | 40 | 1026.9 |
| 20260501190155 | 56 | 92 | 0.0 | 0.0 | 0.00 | 0.00 | 0.00 | 39 | 1026.8 |
| 20260501185658 | 56 | 92 | 0.0 | 0.0 | 0.00 | 0.00 | 0.00 | 38 | 1026.7 |
| 20260501185155 | 56 | 94 | 0.0 | 0.0 | 0.00 | 0.00 | 0.00 | 42 | 1026.8 |
| 20260501184657 | 57 | 94 | 0.0 | 0.0 | 0.00 | 0.00 | 0.00 | 43 | 1026.7 |
| 20260501183654 | 57 | 94 | 0.0 | 0.0 | 0.00 | 0.00 | 0.00 | 42 | 1026.4 |
| 20260501183145 | 58 | 94 | 0.0 | 0.0 | 0.00 | 0.00 | 0.00 | 43 | 1026.5 |
| 20260501182638 | 58 | 94 | 0.0 | 0.0 | 0.00 | 0.00 | 0.00 | 41 | 1026.5 |
| 20260501182133 | 59 | 94 | 0.0 | 2.0 | 0.00 | 0.00 | 0.00 | 37 | 1026.3 |